KD9BEW Weather Reports


Display with metric or nautical units.
time (UTC)temp
F
wind
direction
speed
MPH
gust
MPH
rain 1hr
in
rain 24hr
in
rain mn
in
humidity
%
barometer
mb
20260507194554 51 144 1.0 7.0 0.00 0.00 0.00 38 1008.8
20260507193058 51 244 3.0 14.0 0.00 0.00 0.00 38 1009.1
20260507191559 50 207 3.0 11.0 0.00 0.00 0.00 38 1009.0
20260507190054 51 271 3.0 10.0 0.00 0.00 0.00 37 1009.1
20260507184602 51 210 2.0 13.0 0.00 0.00 0.00 36 1009.3
20260507183054 50 298 2.0 9.0 0.00 0.00 0.00 37 1009.2
20260507181553 51 195 2.0 9.0 0.00 0.00 0.00 37 1009.3
20260507180057 50 280 3.0 11.0 0.00 0.00 0.00 36 1009.6
20260507174601 51 49 1.0 8.0 0.00 0.00 0.00 39 1009.6
20260507173102 48 259 1.0 11.0 0.00 0.00 0.00 45 1010.2
20260507171605 49 259 2.0 9.0 0.00 0.00 0.00 37 1010.2
20260507170058 50 237 3.0 9.0 0.00 0.00 0.00 38 1010.0
20260507164554 48 188 2.0 7.0 0.00 0.00 0.00 39 1010.3
20260507163110 47 325 1.0 10.0 0.00 0.00 0.00 41 1010.6
20260507161558 47 168 3.0 10.0 0.00 0.00 0.00 41 1010.7
20260507160057 48 314 1.0 11.0 0.00 0.00 0.00 42 1010.8
20260507154553 48 126 2.0 7.0 0.00 0.00 0.00 42 1010.9
20260507153054 47 225 1.0 4.0 0.00 0.00 0.00 46 1010.9
20260507151555 47 307 1.0 7.0 0.00 0.00 0.00 43 1010.8
20260507144616 47 275 3.0 7.0 0.00 0.00 0.00 46 1011.1
20260507143056 46 279 1.0 9.0 0.00 0.00 0.00 47 1011.2
20260507141626 46 153 3.0 8.0 0.00 0.00 0.00 47 1011.4
20260507140058 45 326 2.0 9.0 0.00 0.00 0.00 52 1011.4
20260507134556 44 321 2.0 9.0 0.00 0.00 0.00 55 1011.4
20260507133100 42 79 1.0 8.0 0.00 0.00 0.00 59 1011.6
20260507131557 41 267 2.0 6.0 0.00 0.00 0.00 59 1011.7
20260507130108 40 260 1.0 4.0 0.00 0.00 0.00 63 1011.7
20260507124556 40 0 2.0 8.0 0.00 0.00 0.00 63 1011.8
20260507123053 39 275 1.0 6.0 0.00 0.00 0.00 65 1011.8
20260507121556 39 257 2.0 7.0 0.00 0.00 0.00 66 1011.6
20260507120058 38 183 1.0 4.0 0.00 0.00 0.00 68 1011.6
20260507114558 37 176 0.0 2.0 0.00 0.00 0.00 69 1011.6
20260507113055 37 236 1.0 5.0 0.00 0.00 0.00 69 1011.5
20260507111554 37 158 0.0 4.0 0.00 0.00 0.00 69 1011.5
20260507110056 37 159 0.0 2.0 0.00 0.00 0.00 68 1011.5
20260507104608 38 173 1.0 5.0 0.00 0.00 0.00 68 1011.4
20260507103102 38 210 0.0 3.0 0.00 0.00 0.00 68 1011.4
20260507101556 38 217 0.0 4.0 0.00 0.00 0.00 68 1011.5
20260507100054 37 0 0.0 2.0 0.00 0.00 0.00 68 1011.4
20260507094557 37 167 0.0 3.0 0.00 0.00 0.00 68 1011.5
20260507093100 37 143 0.0 2.0 0.00 0.00 0.00 68 1011.5
20260507091559 37 161 0.0 2.0 0.00 0.00 0.00 68 1011.5
20260507090056 38 0 1.0 4.0 0.00 0.00 0.00 67 1011.6
20260507084551 38 192 1.0 3.0 0.00 0.00 0.00 67 1011.6
20260507083056 38 140 0.0 3.0 0.00 0.00 0.00 67 1011.5
20260507081557 38 156 0.0 2.0 0.00 0.00 0.00 67 1011.7
20260507080054 38 164 1.0 3.0 0.00 0.00 0.00 67 1011.7
20260507074556 38 169 0.0 2.0 0.00 0.00 0.00 67 1011.8
20260507073057 38 167 0.0 3.0 0.00 0.00 0.00 67 1011.9
20260507071558 38 0 1.0 3.0 0.00 0.00 0.00 67 1011.9
20260507064557 38 0 0.0 1.0 0.00 0.00 0.00 67 1012.2
20260507063056 38 0 0.0 0.0 0.00 0.00 0.00 68 1012.2
20260507061603 38 0 0.0 1.0 0.00 0.00 0.00 67 1012.3
20260507060104 39 0 0.0 1.0 0.00 0.00 0.00 65 1012.5
20260507054602 39 0 0.0 3.0 0.00 0.00 0.00 65 1012.5
20260507053058 39 0 0.0 0.0 0.00 0.00 0.00 66 1012.7
20260507051552 39 0 0.0 1.0 0.00 0.00 0.00 65 1012.8
20260507050055 39 0 0.0 2.0 0.00 0.00 0.00 64 1013.0
20260507044600 39 0 0.0 4.0 0.00 0.00 0.00 63 1013.0
20260507043058 39 0 0.0 1.0 0.00 0.00 0.00 63 1013.0
20260507041552 39 205 0.0 2.0 0.00 0.00 0.00 62 1013.2
20260507040055 40 0 0.0 1.0 0.00 0.00 0.00 62 1013.2
20260507034608 40 0 0.0 3.0 0.00 0.00 0.00 61 1013.3
20260507033055 40 142 0.0 1.0 0.00 0.00 0.00 61 1013.4
20260507031553 40 0 0.0 0.0 0.00 0.00 0.00 61 1013.4
20260507024558 40 0 0.0 2.0 0.00 0.00 0.00 58 1013.5
20260507023055 41 0 0.0 2.0 0.00 0.00 0.00 58 1013.3
20260507021557 41 0 0.0 5.0 0.00 0.00 0.00 58 1013.3
20260507020055 41 0 0.0 1.0 0.00 0.00 0.00 57 1013.3
20260507014559 41 163 0.0 1.0 0.00 0.00 0.00 56 1013.1
20260507013100 41 0 0.0 2.0 0.00 0.00 0.00 55 1013.2
20260507011557 42 0 1.0 5.0 0.00 0.00 0.00 55 1013.2
20260507010057 42 173 0.0 3.0 0.00 0.00 0.00 54 1013.2
20260507004553 42 260 0.0 5.0 0.00 0.00 0.00 54 1013.1
20260507003054 42 178 1.0 6.0 0.00 0.00 0.00 53 1013.1
20260507001558 42 265 0.0 2.0 0.00 0.00 0.00 55 1013.1
20260507000057 42 281 2.0 7.0 0.00 0.00 0.00 53 1013.1
20260506234556 43 323 1.0 7.0 0.00 0.00 0.00 54 1013.2
20260506233102 43 288 1.0 8.0 0.00 0.00 0.00 54 1013.3
20260506231554 43 300 2.0 9.0 0.00 0.00 0.00 54 1013.3
20260506230057 43 275 3.0 8.0 0.00 0.00 0.00 54 1013.2
20260506224602 44 234 3.0 7.0 0.00 0.00 0.00 54 1013.2
20260506223055 43 0 2.0 10.0 0.00 0.00 0.00 54 1013.0
20260506221556 43 262 2.0 6.0 0.00 0.00 0.00 53 1013.1
20260506220057 44 260 2.0 7.0 0.00 0.00 0.00 53 1013.2
20260506214608 44 138 1.0 9.0 0.00 0.00 0.00 54 1013.1
20260506213054 44 259 3.0 9.0 0.00 0.00 0.00 54 1013.2
20260506211556 43 333 3.0 9.0 0.00 0.00 0.00 53 1013.2
20260506210055 43 289 0.0 4.0 0.00 0.00 0.00 53 1013.2
20260506204610 43 262 1.0 9.0 0.00 0.00 0.00 52 1013.3
20260506203055 43 240 1.0 8.0 0.00 0.00 0.00 54 1013.4
20260506201557 42 264 2.0 7.0 0.00 0.00 0.00 54 1013.4
20260506200055 42 296 2.0 8.0 0.00 0.00 0.00 54 1013.6